Weather History for Athens, OH

Change the Weather History Date:

Sunday, February 3, 2013

  Actual Average (KPKB) Record (KPKB)
Temperature  
Mean Temperature 24 °F 33 °F  
Max Temperature 27 °F 41 °F 65 °F (1927)
Min Temperature 22 °F 24 °F -6 °F (1905)
Degree Days  
Heating Degree Days 40 32  
Since 1 July heating degree days 3043  
Moisture  
Dew Point 19 °F    
Average Humidity 78    
Maximum Humidity 93    
Minimum Humidity 56    
Precipitation  
Precipitation 0.00 in 0.10 in 0.81 in (1952)
Month to date precipitation 0.30  
Year to date precipitation 3.25  
Sea Level Pressure  
Sea Level Pressure 29.97 in    
Wind  
Wind Speed 7 mph (WSW)    
Max Wind Speed 18 mph    
Max Gust Speed 24 mph    
Visibility 9 miles    
Events Snow    
T = Trace of Precipitation, MM = Missing Value Source: NWS Daily Summary

Daily Weather History Graph

Daily Weather History Graph

Search for Another Location

Airport:

Trip Planner

Search our weather history database for the weather conditions in past years. The results will help you decide how hot, cold, wet, or windy it might be!

Date:

Astronomy

Feb. 03, 2013 Rise Set
Actual Time 7:33 AM EST 5:52 PM EST
Civil Twilight 7:05 AM EST 6:20 PM EST
Nautical Twilight 6:33 AM EST 6:52 PM EST
Astronomical Twilight 6:02 AM EST 7:23 PM EST
Moon 12:59 AM EST (2/3) 11:28 AM EST (2/3)
Length of Visible Light 11h 14m
Length of Day
10h 18m
Waning Gibbous, 49% of the Moon is Illuminated
Feb 3
Waning Gibbous
Feb 10
New
Feb 17
First Quarter
Feb 25
Full
Mar 4
Last Quarter

Hourly Weather History & Observations

Time (EST) Temp. Windchill Dew Point Humidity Pressure Visibility Wind Dir Wind Speed Gust Speed Precip Events Conditions
12:15 AM 27.9 °F 21.5 °F 25.2 °F 90% 29.99 in 10.0 mi West 5.8 mph - N/A Snow Light Snow
12:35 AM 27.5 °F 22.2 °F 24.8 °F 90% 29.99 in 10.0 mi WSW 4.6 mph - N/A Snow Light Snow
12:55 AM 27.3 °F 23.4 °F 24.8 °F 90% 29.98 in 7.0 mi West 3.5 mph - N/A Snow Light Snow
1:15 AM 27.1 °F 23.2 °F 24.8 °F 91% 29.98 in 7.0 mi WSW 3.5 mph - N/A Snow Light Snow
1:35 AM 26.6 °F 22.6 °F 24.4 °F 92% 29.98 in 7.0 mi SW 3.5 mph - N/A Snow Light Snow
1:55 AM 26.6 °F 22.6 °F 24.6 °F 92% 29.97 in 7.0 mi SSW 3.5 mph - N/A Snow Light Snow
2:15 AM 27.0 °F 23.0 °F 24.8 °F 92% 29.97 in 5.0 mi SSW 3.5 mph - N/A Snow Light Snow
2:35 AM 26.6 °F 22.6 °F 24.8 °F 93% 29.96 in 5.0 mi SSW 3.5 mph - N/A Snow Light Snow
2:55 AM 26.6 °F 22.6 °F 24.6 °F 92% 29.95 in 7.0 mi SW 3.5 mph - N/A Snow Light Snow
3:15 AM 26.6 °F 22.6 °F 24.4 °F 92% 29.95 in 10.0 mi SSW 3.5 mph - N/A Snow Light Snow
3:35 AM 26.6 °F 21.2 °F 24.3 °F 91% 29.94 in 7.0 mi SSW 4.6 mph - N/A Snow Light Snow
3:55 AM 26.6 °F 21.2 °F 23.9 °F 90% 29.93 in 7.0 mi SW 4.6 mph - N/A Snow Light Snow
4:15 AM 26.6 °F 21.2 °F 23.9 °F 90% 29.93 in 10.0 mi SW 4.6 mph - N/A Snow Light Snow
4:55 AM 26.4 °F 22.4 °F 23.7 °F 90% 29.92 in 10.0 mi SW 3.5 mph - N/A   Overcast
5:15 AM 26.1 °F - 23.4 °F 90% 29.91 in 10.0 mi Calm Calm - N/A   Overcast
5:35 AM 25.9 °F 21.7 °F 23.0 °F 89% 29.91 in 10.0 mi SW 3.5 mph - N/A   Overcast
5:55 AM 25.7 °F 20.1 °F 22.8 °F 89% 29.91 in 10.0 mi SW 4.6 mph - N/A   Overcast
6:15 AM 25.5 °F 21.3 °F 22.3 °F 88% 29.90 in 10.0 mi SW 3.5 mph - N/A   Overcast
6:35 AM 25.3 °F 21.1 °F 22.5 °F 89% 29.90 in 7.0 mi SW 3.5 mph - N/A Snow Light Snow
6:55 AM 25.7 °F 20.1 °F 22.8 °F 89% 29.90 in 3.0 mi SW 4.6 mph - N/A Snow Light Snow
7:15 AM 25.3 °F - 22.6 °F 89% 29.90 in 10.0 mi Calm Calm - N/A   Overcast
7:35 AM 25.5 °F 19.9 °F 22.8 °F 89% 29.90 in 10.0 mi SSW 4.6 mph - N/A   Overcast
7:55 AM 25.5 °F 21.3 °F 22.8 °F 89% 29.90 in 10.0 mi SSW 3.5 mph - N/A   Overcast
8:15 AM 25.7 °F 21.5 °F 23.0 °F 89% 29.90 in 10.0 mi South 3.5 mph - N/A   Overcast
8:35 AM 25.9 °F 20.3 °F 23.2 °F 90% 29.90 in 10.0 mi SSW 4.6 mph - N/A   Overcast
8:55 AM 26.4 °F 20.9 °F 23.4 °F 88% 29.90 in 10.0 mi SW 4.6 mph - N/A   Overcast
9:15 AM 26.6 °F 20.0 °F 23.4 °F 88% 29.90 in 7.0 mi WSW 5.8 mph - N/A Snow Light Snow
9:35 AM 27.1 °F 18.9 °F 23.4 °F 86% 29.90 in 10.0 mi WSW 8.1 mph - N/A   Overcast
9:55 AM 27.1 °F 17.5 °F 23.0 °F 84% 29.90 in 7.0 mi WSW 10.4 mph - N/A Snow Light Snow
10:15 AM 26.6 °F 17.5 °F 22.1 °F 83% 29.90 in 3.0 mi WSW 9.2 mph - N/A Snow Light Snow
10:35 AM 26.4 °F 16.0 °F 22.1 °F 84% 29.90 in 3.0 mi WSW 11.5 mph - N/A Snow Light Snow
10:55 AM 26.2 °F 17.1 °F 22.6 °F 86% 29.90 in 2.5 mi West 9.2 mph - N/A Snow Light Snow
11:15 AM 26.6 °F 17.5 °F 21.7 °F 82% 29.91 in 4.0 mi West 9.2 mph - N/A Snow Light Snow
11:35 AM 26.4 °F 15.0 °F 19.6 °F 75% 29.91 in 5.0 mi WNW 13.8 mph 19.6 mph N/A Snow Light Snow
11:55 AM 25.7 °F 13.5 °F 18.0 °F 73% 29.91 in 5.0 mi West 15.0 mph 19.6 mph N/A Snow Light Snow
12:15 PM 25.2 °F 12.9 °F 16.3 °F 69% 29.91 in 10.0 mi West 15.0 mph 21.9 mph N/A   Overcast
12:35 PM 24.8 °F 13.4 °F 15.8 °F 69% 29.91 in 10.0 mi West 12.7 mph 20.7 mph N/A   Overcast
12:55 PM 24.8 °F 12.4 °F 15.4 °F 68% 29.91 in 10.0 mi WNW 15.0 mph 18.4 mph N/A   Overcast
1:15 PM 24.4 °F 13.5 °F 13.8 °F 64% 29.91 in 10.0 mi WNW 11.5 mph - N/A   Overcast
1:35 PM 24.4 °F 11.9 °F 13.8 °F 64% 29.92 in 10.0 mi West 15.0 mph - N/A   Overcast
1:55 PM 24.3 °F 13.9 °F 13.6 °F 64% 29.92 in 10.0 mi West 10.4 mph - N/A   Overcast
2:15 PM 24.3 °F 12.7 °F 13.1 °F 63% 29.93 in 10.0 mi West 12.7 mph 19.6 mph N/A   Overcast
2:35 PM 24.1 °F 11.0 °F 12.4 °F 61% 29.93 in 10.0 mi West 16.1 mph 19.6 mph N/A   Overcast
2:55 PM 23.9 °F 11.7 °F 11.3 °F 59% 29.94 in 10.0 mi West 13.8 mph - N/A   Overcast
3:15 PM 23.9 °F 12.3 °F 10.6 °F 57% 29.95 in 10.0 mi West 12.7 mph 20.7 mph N/A   Overcast
3:35 PM 23.9 °F 11.7 °F 10.4 °F 56% 29.96 in 10.0 mi WNW 13.8 mph 24.2 mph N/A   Overcast
3:55 PM 23.9 °F 12.3 °F 10.8 °F 57% 29.97 in 10.0 mi West 12.7 mph - N/A   Overcast
4:15 PM 23.7 °F 12.6 °F 11.5 °F 60% 29.98 in 10.0 mi WSW 11.5 mph - N/A   Overcast
4:35 PM 23.5 °F 12.4 °F 12.2 °F 62% 29.99 in 10.0 mi WSW 11.5 mph 18.4 mph N/A   Overcast
4:55 PM 23.7 °F 12.6 °F 12.0 °F 61% 30.00 in 10.0 mi West 11.5 mph - N/A   Overcast
5:15 PM 23.2 °F 9.0 °F 11.7 °F 61% 30.01 in 10.0 mi West 18.4 mph - N/A   Overcast
5:35 PM 23.0 °F 11.7 °F 12.2 °F 63% 30.01 in 10.0 mi WNW 11.5 mph - N/A   Overcast
5:55 PM 22.6 °F 12.6 °F 12.9 °F 66% 30.02 in 10.0 mi West 9.2 mph 16.1 mph N/A   Overcast
6:15 PM 22.6 °F 13.4 °F 13.1 °F 67% 30.03 in 10.0 mi West 8.1 mph - N/A Snow Light Snow
6:55 PM 22.5 °F 14.1 °F 14.2 °F 71% 30.06 in 10.0 mi West 6.9 mph - N/A Snow Light Snow
7:15 PM 22.5 °F 14.1 °F 14.7 °F 72% 30.06 in 10.0 mi West 6.9 mph - N/A Snow Light Snow
7:35 PM 22.1 °F 14.7 °F 15.4 °F 76% 30.08 in 10.0 mi West 5.8 mph - N/A Snow Light Snow
7:55 PM 22.1 °F 14.7 °F 15.4 °F 76% 30.08 in 10.0 mi WSW 5.8 mph - N/A   Overcast
8:15 PM 22.1 °F 14.7 °F 15.6 °F 76% 30.08 in 10.0 mi West 5.8 mph - N/A   Overcast
8:35 PM 22.5 °F 14.1 °F 15.3 °F 74% 30.09 in 10.0 mi WSW 6.9 mph - N/A   Overcast
8:55 PM 22.6 °F 14.3 °F 14.9 °F 72% 30.09 in 10.0 mi West 6.9 mph - N/A   Overcast
9:15 PM 22.3 °F 16.1 °F 15.3 °F 74% 30.09 in 10.0 mi WSW 4.6 mph - N/A   Overcast
9:35 PM 22.5 °F 14.1 °F 15.4 °F 74% 30.10 in 10.0 mi WSW 6.9 mph - N/A   Overcast
9:55 PM 22.3 °F 13.0 °F 15.3 °F 74% 30.10 in 10.0 mi WSW 8.1 mph - N/A   Overcast
10:15 PM 22.6 °F 15.3 °F 15.4 °F 74% 30.10 in 10.0 mi SW 5.8 mph - N/A   Overcast
10:35 PM 22.8 °F 16.7 °F 15.6 °F 74% 30.10 in 10.0 mi SW 4.6 mph - N/A Snow Light Snow
10:55 PM 22.6 °F 13.4 °F 15.8 °F 75% 30.10 in 10.0 mi SW 8.1 mph - N/A   Overcast
11:15 PM 22.6 °F 12.6 °F 15.8 °F 75% 30.10 in 10.0 mi WSW 9.2 mph - N/A   Overcast
11:35 PM 22.8 °F 13.6 °F 15.8 °F 74% 30.10 in 10.0 mi WSW 8.1 mph - N/A   Overcast
11:55 PM 22.8 °F 12.2 °F 15.4 °F 73% 30.11 in 10.0 mi West 10.4 mph - N/A   Overcast